Quincy, IL

12:00 PM CST on January 19, 2018 (GMT -0600)
Quincy Regional-Baldwin

Weather History for KUIN - January, 2012

Change the Weather History Date:

Monday, January 23, 2012

  Actual Average Record
Temperature  
Mean Temperature 38 °F 26 °F  
Max Temperature 46 °F 35 °F 72 °F (1909)
Min Temperature 30 °F 18 °F -16 °F (1936)
Degree Days  
Heating Degree Days 27 39  
Month to date heating degree days 893  
Since 1 July heating degree days 3084  
Cooling Degree Days 0 0  
Month to date cooling degree days 0  
Year to date cooling degree days 0  
Moisture  
Dew Point 30 °F    
Average Humidity 77    
Maximum Humidity 93    
Minimum Humidity 66    
Precipitation  
Precipitation 0.03 in 0.04 in 1.62 in (1969)
Month to date precipitation 1.14  
Year to date precipitation 1.14  
Sea Level Pressure  
Sea Level Pressure 29.70 in    
Wind  
Wind Speed 14 mph (West)    
Max Wind Speed 28 mph    
Max Gust Speed 41 mph    
Visibility 8 miles    
Events Rain , Thunderstorm    
T = Trace of Precipitation, MM = Missing Value Source: NWS Daily Summary

Daily Weather History Graph

Daily Weather History Graph

Search for Another Location

Airport or City:

Trip Planner

Search our weather history database for the weather conditions in past years. The results will help you decide how hot, cold, wet, or windy it might be!

Date:

Astronomy

Jan. 23, 2012 Rise Set
Actual Time 7:20 AM CST 5:12 PM CST
Civil Twilight 6:51 AM CST 5:42 PM CST
Nautical Twilight 6:18 AM CST 6:14 PM CST
Astronomical Twilight 5:46 AM CST 6:47 PM CST
Moon 7:16 AM CST (1/23) 6:00 PM CST (1/23)
Length of Visible Light 10h 50m
Length of Day
9h 52m
New Moon, 0% of the Moon is Illuminated
Jan 23
New Moon
Jan 30
First Quarter
Feb 7
Full
Feb 14
Last Quarter
Feb 21
New

Hourly Weather History & Observations

Time (CST) Temp. Windchill Dew Point Humidity Pressure Visibility Wind Dir Wind Speed Gust Speed Precip Events Conditions
12:36 AM 44.6 °F 39.7 °F 42.8 °F 93% 29.38 in 7.0 mi SSW 9.2 mph - 0.00 in   Overcast
12:52 AM 46.4 °F 39.8 °F 44.6 °F 93% 29.39 in 6.0 mi SSW 16.1 mph 21.9 mph 0.01 in Rain , Thunderstorm Light Thunderstorms and Rain
12:54 AM 46.9 °F - 44.1 °F 90% 29.38 in 6.0 mi SSW 13.8 mph 21.9 mph 0.02 in Rain , Thunderstorm Light Thunderstorms and Rain
1:07 AM 46.4 °F 43.5 °F 42.8 °F 87% 29.34 in 10.0 mi SSW 5.8 mph 16.1 mph 0.00 in Rain Light Rain
1:54 AM 45.0 °F 42.6 °F 42.1 °F 90% 29.37 in 10.0 mi SSW 4.6 mph - 0.00 in   Overcast
2:25 AM 44.6 °F 39.7 °F 41.0 °F 87% 29.38 in 10.0 mi SW 9.2 mph - N/A   Overcast
2:54 AM 46.9 °F - 43.0 °F 86% 29.40 in 9.0 mi West 15.0 mph 26.5 mph N/A   Overcast
3:02 AM 46.4 °F 40.1 °F 42.8 °F 87% 29.40 in 7.0 mi West 15.0 mph 21.9 mph N/A   Overcast
3:54 AM 39.9 °F 28.8 °F 37.9 °F 93% 29.47 in 4.0 mi WSW 27.6 mph 41.4 mph 0.01 in Rain Light Rain
4:54 AM 36.0 °F 25.6 °F 32.0 °F 86% 29.54 in 9.0 mi West 18.4 mph 33.4 mph 0.00 in   Overcast
5:54 AM 34.0 °F 22.7 °F 30.0 °F 85% 29.58 in 5.0 mi West 19.6 mph 28.8 mph N/A   Overcast
6:44 AM 33.8 °F 22.8 °F 28.4 °F 81% 29.61 in 7.0 mi West 18.4 mph 31.1 mph N/A   Overcast
6:54 AM 33.1 °F 21.2 °F 28.0 °F 82% 29.62 in 7.0 mi West 20.7 mph 28.8 mph N/A   Overcast
7:54 AM 33.1 °F 21.2 °F 26.1 °F 75% 29.67 in 6.0 mi West 20.7 mph 32.2 mph N/A   Haze
8:54 AM 33.1 °F 21.5 °F 25.0 °F 72% 29.72 in 6.0 mi West 19.6 mph 28.8 mph N/A   Haze
9:54 AM 33.1 °F 21.5 °F 24.1 °F 70% 29.76 in 6.0 mi West 19.6 mph 28.8 mph N/A   Haze
10:54 AM 33.1 °F 22.6 °F 24.1 °F 70% 29.79 in 6.0 mi West 16.1 mph 26.5 mph N/A   Haze
11:54 AM 34.0 °F 22.1 °F 24.1 °F 67% 29.80 in 8.0 mi West 21.9 mph 29.9 mph N/A   Overcast
12:54 PM 34.0 °F 23.8 °F 25.0 °F 70% 29.80 in 8.0 mi West 16.1 mph 25.3 mph N/A   Overcast
1:54 PM 34.0 °F 24.2 °F 25.0 °F 70% 29.85 in 9.0 mi West 15.0 mph 25.3 mph N/A   Overcast
2:54 PM 33.1 °F 21.9 °F 24.1 °F 70% 29.88 in 10.0 mi West 18.4 mph 26.5 mph N/A   Overcast
3:54 PM 34.0 °F 25.0 °F 24.1 °F 67% 29.91 in 10.0 mi West 12.7 mph - N/A   Overcast
4:54 PM 33.1 °F 23.0 °F 23.0 °F 66% 29.95 in 10.0 mi West 15.0 mph 25.3 mph N/A   Overcast
5:54 PM 33.1 °F 23.4 °F 24.1 °F 70% 29.97 in 10.0 mi West 13.8 mph - N/A   Overcast
6:54 PM 32.0 °F 22.1 °F 23.0 °F 69% 29.98 in 10.0 mi West 13.8 mph 25.3 mph N/A   Overcast
7:54 PM 32.0 °F 21.6 °F 23.0 °F 69% 30.00 in 10.0 mi WNW 15.0 mph - N/A   Overcast
8:54 PM 30.9 °F 21.7 °F 21.9 °F 69% 30.02 in 10.0 mi West 11.5 mph - N/A   Overcast
9:54 PM 30.9 °F 22.8 °F 21.9 °F 69% 30.04 in 10.0 mi West 9.2 mph - N/A   Overcast
10:54 PM 30.9 °F 19.1 °F 21.9 °F 69% 30.06 in 10.0 mi WNW 18.4 mph 23.0 mph N/A   Overcast
11:54 PM 30.9 °F 21.7 °F 21.9 °F 69% 30.07 in 10.0 mi WNW 11.5 mph - N/A   Overcast